Weather History for Shemya, AK

Change the Weather History Date:

Saturday, November 29, 2014

  Actual Average Record
Temperature  
Mean Temperature 36 °F -  
Max Temperature 37 °F 37 °F 44 °F (1960)
Min Temperature 35 °F 32 °F 22 °F (1962)
Degree Days  
Heating Degree Days 29    
Moisture  
Dew Point 33 °F    
Average Humidity 85    
Maximum Humidity 93    
Minimum Humidity 73    
Precipitation  
Precipitation 0.00 in - - ()
Sea Level Pressure  
Sea Level Pressure 29.48 in    
Wind  
Wind Speed 20 mph (North)    
Max Wind Speed 32 mph    
Max Gust Speed 38 mph    
Visibility 10 miles    
Events Rain    
Averages and records for this station are not official NWS values.
T = Trace of Precipitation, MM = Missing Value Source: NWS Daily Summary

Daily Weather History Graph

Daily Weather History Graph

Search for Another Location

Airport:

Trip Planner

Search our weather history database for the weather conditions in past years. The results will help you decide how hot, cold, wet, or windy it might be!

Date:

Astronomy

Nov. 28, 2014 Rise Set
Actual Time 10:08 AM HAST 6:14 PM HAST
Civil Twilight 9:28 AM HAST 6:54 PM HAST
Nautical Twilight 8:45 AM HAST 7:37 PM HAST
Astronomical Twilight 8:03 AM HAST 8:19 PM HAST
Moon 3:09 PM HAST (11/29) 1:55 AM HAST (11/29)
Length of Visible Light 9h 26m
Length of Day
8h 05m
First Quarter, 56% of the Moon is Illuminated
Nov 29
First Quarter
Dec 6
Full
Dec 14
Last Quarter
Dec 21
New
Dec 28
First Quarter

Hourly Weather History & Observations

Time (HAST) Temp. Windchill Dew Point Humidity Pressure Visibility Wind Dir Wind Speed Gust Speed Precip Events Conditions
1:56 AM 37.0 °F 28.5 °F 33.1 °F 86% 29.88 in 10.0 mi East 13.8 mph - N/A Rain Light Rain
2:56 AM 37.0 °F 28.9 °F 34.0 °F 89% 29.84 in 10.0 mi East 12.7 mph - N/A Rain Light Rain
3:36 AM 37.4 °F 28.2 °F 33.8 °F 87% 29.81 in 10.0 mi East 16.1 mph - N/A Rain Light Rain
3:47 AM 37.4 °F 28.9 °F 33.8 °F 87% 29.81 in 10.0 mi East 13.8 mph - N/A Rain Light Rain
3:56 AM 37.0 °F 27.7 °F 33.1 °F 86% 29.80 in 10.0 mi East 16.1 mph - N/A Rain Light Rain
4:56 AM 36.0 °F 25.6 °F 33.1 °F 89% 29.76 in 10.0 mi East 18.4 mph - N/A Rain Light Rain
5:56 AM 36.0 °F 24.7 °F 33.1 °F 89% 29.72 in 10.0 mi East 21.9 mph - N/A Rain Light Rain
6:19 AM 35.6 °F 24.8 °F 33.8 °F 93% 29.70 in 10.0 mi East 19.6 mph - N/A Rain Light Rain
6:56 AM 36.0 °F 26.0 °F 32.0 °F 86% 29.68 in 10.0 mi ENE 17.3 mph 24.2 mph N/A Rain Light Rain
7:56 AM 36.0 °F 26.3 °F 33.1 °F 89% 29.65 in 10.0 mi ENE 16.1 mph - N/A Rain Light Rain
8:14 AM 35.6 °F 25.2 °F 33.8 °F 93% 29.64 in 10.0 mi ENE 18.4 mph 24.2 mph N/A Rain Light Rain
8:56 AM 36.0 °F 25.3 °F 33.1 °F 89% 29.61 in 10.0 mi ENE 19.6 mph - N/A Rain Light Rain
9:24 AM 35.6 °F 24.0 °F 33.8 °F 93% 29.59 in 10.0 mi NE 23.0 mph - N/A Rain Light Rain
9:56 AM 36.0 °F 24.2 °F 33.1 °F 89% 29.58 in 10.0 mi NE 24.2 mph - N/A Rain Light Rain
10:43 AM 37.4 °F 26.9 °F 33.8 °F 87% 29.55 in 10.0 mi NE 20.7 mph 29.9 mph N/A Rain Light Rain
10:56 AM 37.0 °F 25.4 °F 33.1 °F 86% 29.54 in 10.0 mi NE 25.3 mph - N/A   Overcast
11:56 AM 37.0 °F 25.6 °F 34.0 °F 89% 29.50 in 10.0 mi NE 24.2 mph 28.8 mph N/A   Overcast
12:56 PM 37.9 °F 27.6 °F 34.0 °F 86% 29.47 in 10.0 mi NNE 20.7 mph - N/A Rain Light Rain
1:56 PM 37.9 °F 27.3 °F 34.0 °F 86% 29.44 in 10.0 mi NNE 21.9 mph - N/A Rain Light Rain
2:56 PM 37.9 °F 27.6 °F 34.0 °F 86% 29.40 in 10.0 mi North 20.7 mph - N/A Rain Light Rain
3:33 PM 37.4 °F 26.6 °F 33.8 °F 87% 29.39 in 10.0 mi North 21.9 mph - N/A Rain Light Rain
3:52 PM 37.4 °F 26.6 °F 33.8 °F 87% 29.38 in 10.0 mi North 21.9 mph - N/A Rain Light Rain
3:56 PM 37.9 °F 27.3 °F 34.0 °F 86% 29.38 in 10.0 mi North 21.9 mph - N/A Rain Light Rain
4:00 PM 37.4 °F 26.4 °F 33.8 °F 87% 29.38 in 10.0 mi North 23.0 mph - N/A Rain Light Rain
4:36 PM 37.4 °F 26.4 °F 33.8 °F 87% 29.37 in 10.0 mi North 23.0 mph 28.8 mph N/A Rain Light Rain
4:45 PM 37.4 °F 26.6 °F 33.8 °F 87% 29.37 in 10.0 mi North 21.9 mph - N/A Rain Light Rain
4:53 PM 37.4 °F 26.9 °F 33.8 °F 87% 29.37 in 10.0 mi North 20.7 mph - N/A Rain Light Rain
4:56 PM 37.9 °F 27.1 °F 34.0 °F 86% 29.38 in 10.0 mi North 23.0 mph - N/A Rain Light Rain
5:10 PM 37.4 °F 26.9 °F 33.8 °F 87% 29.37 in 10.0 mi North 20.7 mph - N/A Rain Light Rain
5:19 PM 37.4 °F 27.2 °F 33.8 °F 87% 29.37 in 10.0 mi North 19.6 mph - N/A Rain Light Rain
5:38 PM 37.4 °F 26.4 °F 33.8 °F 87% 29.37 in 10.0 mi North 23.0 mph - N/A Rain Light Rain
5:42 PM 37.4 °F 26.4 °F 33.8 °F 87% 29.37 in 10.0 mi North 23.0 mph 27.6 mph N/A Rain Light Rain
5:56 PM 37.9 °F 27.3 °F 34.0 °F 86% 29.37 in 10.0 mi North 21.9 mph 27.6 mph N/A Rain Light Rain
6:05 PM 37.4 °F 26.4 °F 33.8 °F 87% 29.37 in 10.0 mi North 23.0 mph 27.6 mph N/A   Overcast
6:13 PM 37.4 °F 26.9 °F 33.8 °F 87% 29.37 in 10.0 mi North 20.7 mph 27.6 mph N/A   Overcast
6:22 PM 37.4 °F 25.9 °F 33.8 °F 87% 29.36 in 10.0 mi North 25.3 mph 29.9 mph N/A   Mostly Cloudy
6:44 PM 37.4 °F 25.6 °F 33.8 °F 87% 29.36 in 10.0 mi North 26.5 mph - N/A   Mostly Cloudy
6:56 PM 37.9 °F 26.8 °F 33.1 °F 83% 29.37 in 10.0 mi North 24.2 mph - N/A Rain Light Rain
7:00 PM 37.4 °F 26.6 °F 33.8 °F 87% 29.37 in 10.0 mi North 21.9 mph 28.8 mph N/A Rain Light Rain
7:08 PM 37.4 °F 26.1 °F 33.8 °F 87% 29.36 in 10.0 mi North 24.2 mph - N/A   Mostly Cloudy
7:28 PM 37.4 °F 26.9 °F 33.8 °F 87% 29.36 in 10.0 mi NNW 20.7 mph - N/A   Mostly Cloudy
7:49 PM 37.4 °F 26.4 °F 33.8 °F 87% 29.37 in 10.0 mi NNW 23.0 mph - N/A   Scattered Clouds
7:56 PM 37.9 °F 26.6 °F 33.1 °F 83% 29.37 in 10.0 mi NNW 25.3 mph - N/A   Scattered Clouds
8:30 PM 37.4 °F 25.4 °F 32.0 °F 81% 29.37 in 10.0 mi NNW 27.6 mph - N/A   Mostly Cloudy
8:56 PM 37.9 °F 27.1 °F 30.9 °F 76% 29.37 in 10.0 mi NNW 23.0 mph 31.1 mph N/A Rain Light Rain
9:05 PM 37.4 °F 26.4 °F 30.2 °F 75% 29.37 in 10.0 mi NNW 23.0 mph 32.2 mph N/A   Mostly Cloudy
9:37 PM 37.4 °F 26.6 °F 30.2 °F 75% 29.37 in 10.0 mi NNW 21.9 mph 28.8 mph N/A   Mostly Cloudy
9:56 PM 37.9 °F 25.7 °F 30.9 °F 76% 29.37 in 10.0 mi NNW 29.9 mph 35.7 mph N/A   Mostly Cloudy
10:36 PM 37.4 °F 25.4 °F 32.0 °F 81% 29.37 in 10.0 mi NW 27.6 mph 32.2 mph N/A   Scattered Clouds
10:45 PM 37.4 °F 24.6 °F 32.0 °F 81% 29.37 in 10.0 mi NW 32.2 mph 38.0 mph N/A   Mostly Cloudy
10:52 PM 37.4 °F 24.8 °F 32.0 °F 81% 29.37 in 10.0 mi NNW 31.1 mph 38.0 mph N/A   Mostly Cloudy
10:53 PM 37.0 °F 24.5 °F 32.0 °F 82% 29.38 in 10.0 mi NW 29.9 mph 38.0 mph N/A   Mostly Cloudy
11:30 PM 37.4 °F 25.6 °F 32.0 °F 81% 29.38 in 10.0 mi NW 26.5 mph 34.5 mph N/A   Overcast
11:56 PM 37.9 °F 25.5 °F 30.0 °F 73% 29.39 in 10.0 mi NNW 31.1 mph 38.0 mph N/A   Overcast